Date String (YYYY-MM-DD hh:mm:ss) UTC,Instrument flags,absolute air pressure of the measurement (hPa),sample flow rate (lpm),inlet stack bypass flow (lpm),air temperature of the measurement (°C),ambient temperature measured by the external sensor (°C),aerosol sample conditioner tube jacket temperature (°C),OPC LED temperature (°C),internal box temperature (°C),relative humidity of the measurement (%),span deviation,mass concentration of particles derived from Lorenz-Mie calculation of OPC scattering (μg/m³),mass concentration of particles derived from Lorenz-Mie calculation of OPC scattering (μg/m³),mass concentration of particles derived from Lorenz-Mie calculation of OPC scattering (μg/m³)
DateTimeUTC,F1_M11,P_M11,Q1_M11,Q2_M11,T1_M11,T2_M11,T3_M11,T4_M11,T5_M11,U1_M11,ZSPAN_M11,X0_M11,X2_M11,X1_M11
2023-08-12 19:00:00,SystemResetWarning,0833.0,5.00,000.00,029.0,027.6,000.0,037.4,030.8,27.8,0000.0,0008.25,0003.99,0003.34
2023-08-12 19:01:00,SystemResetWarning,0833.0,5.00,000.00,029.1,027.8,000.0,037.4,030.9,28.1,0000.0,0008.14,0003.99,0003.35
2023-08-12 19:02:00,SystemResetWarning,0833.0,4.98,000.00,029.1,027.1,000.0,037.4,030.8,28.0,0000.0,0007.99,0003.97,0003.35
2023-08-12 19:03:00,SystemResetWarning,0833.0,5.00,000.00,029.1,025.4,000.0,037.3,030.4,28.2,0000.0,0008.33,0003.98,0003.34
2023-08-12 19:04:00,SystemResetWarning,0833.1,5.01,000.00,029.0,024.8,000.0,037.2,030.2,28.4,0000.0,0008.55,0004.01,0003.35
2023-08-12 19:05:00,SystemResetWarning,0833.1,5.01,000.00,028.9,025.1,000.0,037.2,030.2,28.7,0000.0,0008.56,0004.06,0003.36
2023-08-12 19:06:00,SystemResetWarning,0833.2,5.00,000.00,028.8,025.5,000.0,037.2,030.2,28.2,0000.0,0008.35,0004.14,0003.38
2023-08-12 19:07:00,SystemResetWarning,0833.0,5.01,000.00,028.8,025.9,000.0,037.3,030.3,27.1,0000.0,0009.31,0004.15,0003.40
2023-08-12 19:08:00,SystemResetWarning,0833.1,5.00,000.00,028.8,026.4,000.0,037.3,030.5,27.0,0000.0,0009.52,0004.14,0003.42
2023-08-12 19:09:00,SystemResetWarning,0833.0,5.00,000.00,028.9,026.7,000.0,037.3,030.6,27.4,0000.0,0009.44,0004.12,0003.42
2023-08-12 19:10:00,SystemResetWarning,0833.0,5.00,000.00,028.9,027.1,000.0,037.3,030.7,27.7,0000.0,0009.40,0004.10,0003.42
2023-08-12 19:11:00,SystemResetWarning,0833.0,5.00,000.00,029.0,027.3,000.0,037.4,030.7,27.7,0000.0,0009.46,0004.10,0003.44
2023-08-12 19:12:00,SystemResetWarning,0833.0,5.00,000.00,029.0,027.6,000.0,037.4,030.8,27.9,0000.0,0010.56,0004.15,0003.48
2023-08-12 19:13:00,SystemResetWarning,0833.1,5.00,000.00,029.1,027.8,000.0,037.4,030.9,27.8,0000.0,0011.03,0004.26,0003.53
2023-08-12 19:14:00,SystemResetWarning,0833.0,5.00,000.00,029.1,027.5,000.0,037.4,030.9,27.9,0000.0,0011.69,0004.32,0003.58
2023-08-12 19:15:00,SystemResetWarning,0833.3,4.98,000.00,029.1,025.8,000.0,037.3,030.5,28.3,0000.0,0012.04,0004.31,0003.60
2023-08-12 19:16:00,SystemResetWarning,0833.2,5.01,000.00,029.0,024.8,000.0,037.2,030.2,28.7,0000.0,0012.00,0004.31,0003.63
2023-08-12 19:17:00,SystemResetWarning,0833.6,5.01,000.00,028.9,024.9,000.0,037.1,030.1,29.2,0000.0,0011.77,0004.27,0003.67
2023-08-12 19:18:00,SystemResetWarning,0833.3,4.99,000.00,028.8,025.3,000.0,037.2,030.1,29.4,0000.0,0010.64,0004.28,0003.70
2023-08-12 19:19:00,SystemResetWarning,0833.2,4.99,000.00,028.8,025.7,000.0,037.2,030.3,29.7,0000.0,0010.39,0004.32,0003.72
2023-08-12 19:20:00,SystemResetWarning,0833.3,5.00,000.00,028.8,026.1,000.0,037.2,030.4,29.7,0000.0,0010.68,0004.39,0003.75
2023-08-12 19:21:00,SystemResetWarning,0833.4,5.00,000.00,028.8,026.6,000.0,037.3,030.5,29.1,0000.0,0010.82,0004.43,0003.78
2023-08-12 19:22:00,SystemResetWarning,0833.3,5.01,000.00,028.9,026.9,000.0,037.3,030.6,28.4,0000.0,0010.91,0004.50,0003.81
2023-08-12 19:23:00,SystemResetWarning,0833.2,5.00,000.00,028.9,027.2,000.0,037.3,030.7,28.1,0000.0,0010.06,0004.53,0003.83
2023-08-12 19:24:00,SystemResetWarning,0833.1,4.99,000.00,029.0,027.5,000.0,037.3,030.8,28.3,0000.0,0010.19,0004.46,0003.82
2023-08-12 19:25:00,SystemResetWarning,0833.1,5.00,000.00,029.0,027.7,000.0,037.4,030.8,27.7,0000.0,0009.42,0004.43,0003.82
2023-08-12 19:26:00,SystemResetWarning,0833.0,5.00,000.00,029.1,027.7,000.0,037.4,030.8,26.9,0000.0,0009.61,0004.43,0003.82
2023-08-12 19:27:00,SystemResetWarning,0833.2,4.99,000.00,029.0,026.2,000.0,037.3,030.5,26.6,0000.0,0009.62,0004.42,0003.82
2023-08-12 19:28:00,SystemResetWarning,0833.0,5.01,000.00,028.9,024.8,000.0,037.1,030.1,26.2,0000.0,0009.67,0004.42,0003.82
2023-08-12 19:29:00,SystemResetWarning,0833.0,5.01,000.00,028.8,024.8,000.0,037.1,030.0,25.5,0000.0,0009.83,0004.44,0003.81
2023-08-12 19:30:00,SystemResetWarning,0833.0,5.00,000.00,028.7,025.1,000.0,037.1,030.0,25.7,0000.0,0010.44,0004.45,0003.81
2023-08-12 19:31:00,SystemResetWarning,0832.9,5.00,000.00,028.7,025.5,000.0,037.1,030.1,25.9,0000.0,0010.41,0004.44,0003.81
2023-08-12 19:32:00,SystemResetWarning,0833.1,5.00,000.00,028.7,026.0,000.0,037.2,030.3,26.2,0000.0,0010.38,0004.45,0003.81
2023-08-12 19:33:00,SystemResetWarning,0833.4,5.00,000.00,028.8,026.4,000.0,037.2,030.4,25.6,0000.0,0010.55,0004.45,0003.80
2023-08-12 19:34:00,SystemResetWarning,0833.0,5.00,000.00,028.8,026.8,000.0,037.2,030.5,25.9,0000.0,0010.66,0004.44,0003.79
2023-08-12 19:35:00,SystemResetWarning,0833.1,5.00,000.00,028.8,027.1,000.0,037.2,030.6,25.3,0000.0,0010.48,0004.47,0003.78
2023-08-12 19:36:00,SystemResetWarning,0833.0,5.00,000.00,028.9,027.4,000.0,037.3,030.7,24.8,0000.0,0010.21,0004.48,0003.78
2023-08-12 19:37:00,SystemResetWarning,0833.0,5.00,000.00,028.9,027.6,000.0,037.3,030.8,24.7,0000.0,0009.51,0004.47,0003.77
2023-08-12 19:38:00,SystemResetWarning,0833.2,5.01,000.00,029.0,027.8,000.0,037.3,030.8,25.4,0000.0,0009.69,0004.49,0003.76
2023-08-12 19:39:00,SystemResetWarning,0833.1,4.98,000.00,029.0,026.8,000.0,037.2,030.7,25.0,0000.0,0009.82,0004.50,0003.75
2023-08-12 19:40:00,SystemResetWarning,0833.2,5.00,000.00,028.9,025.1,000.0,037.1,030.3,25.9,0000.0,0010.17,0004.51,0003.75
2023-08-12 19:41:00,SystemResetWarning,0833.2,5.01,000.00,028.9,024.8,000.0,037.0,030.1,26.9,0000.0,0009.91,0004.49,0003.74
2023-08-12 19:42:00,SystemResetWarning,0833.1,5.00,000.00,028.8,025.2,000.0,037.1,030.1,26.6,0000.0,0009.74,0004.47,0003.75
2023-08-12 19:43:00,SystemResetWarning,0833.2,5.01,000.00,028.7,025.6,000.0,037.1,030.2,25.3,0000.0,0009.61,0004.44,0003.75
2023-08-12 19:44:00,SystemResetWarning,0833.2,4.99,000.00,028.7,026.0,000.0,037.2,030.3,25.3,0000.0,0009.48,0004.43,0003.75
2023-08-12 19:45:00,SystemResetWarning,0833.2,5.00,000.00,028.8,026.4,000.0,037.2,030.4,25.9,0000.0,0009.96,0004.42,0003.75
2023-08-12 19:46:00,SystemResetWarning,0833.2,5.01,000.00,028.8,026.8,000.0,037.2,030.5,26.5,0000.0,0010.26,0004.43,0003.76
2023-08-12 19:47:00,SystemResetWarning,0833.2,5.00,000.00,028.8,027.1,000.0,037.2,030.6,27.8,0000.0,0010.86,0004.51,0003.76
2023-08-12 19:48:00,SystemResetWarning,0833.2,5.00,000.00,028.9,027.4,000.0,037.3,030.7,27.8,0000.0,0011.27,0004.56,0003.76
2023-08-12 19:49:00,SystemResetWarning,0833.2,4.99,000.00,028.9,027.6,000.0,037.3,030.8,27.5,0000.0,0011.79,0004.58,0003.77
2023-08-12 19:50:00,SystemResetWarning,0833.2,5.00,000.00,029.0,027.6,000.0,037.3,030.8,27.5,0000.0,0013.35,0004.59,0003.76
2023-08-12 19:51:00,SystemResetWarning,0833.2,5.00,000.00,029.0,026.2,000.0,037.2,030.5,25.9,0000.0,0013.54,0004.57,0003.76
2023-08-12 19:52:00,SystemResetWarning,0833.2,5.01,000.00,028.9,024.8,000.0,037.1,030.2,25.4,0000.0,0013.06,0004.56,0003.74
2023-08-12 19:53:00,SystemResetWarning,0833.2,5.02,000.00,028.8,024.8,000.0,037.0,030.1,25.3,0000.0,0013.15,0004.56,0003.73
2023-08-12 19:54:00,SystemResetWarning,0833.2,5.00,000.00,028.7,025.2,000.0,037.1,030.1,25.4,0000.0,0013.60,0004.56,0003.72
2023-08-12 19:55:00,SystemResetWarning,0833.2,5.00,000.00,028.7,025.6,000.0,037.1,030.2,25.7,0000.0,0014.22,0004.55,0003.71
2023-08-12 19:56:00,SystemResetWarning,0833.2,5.00,000.00,028.7,026.0,000.0,037.1,030.3,26.0,0000.0,0014.41,0004.53,0003.70
2023-08-12 19:57:00,SystemResetWarning,0833.3,4.99,000.00,028.7,026.4,000.0,037.2,030.4,25.8,0000.0,0013.98,0004.49,0003.68
2023-08-12 19:58:00,SystemResetWarning,0833.3,5.00,000.00,028.8,026.8,000.0,037.2,030.5,25.6,0000.0,0013.56,0004.43,0003.66
2023-08-12 19:59:00,SystemResetWarning,0833.3,5.01,000.00,028.8,027.1,000.0,037.2,030.6,25.2,0000.0,0013.17,0004.41,0003.64
